Location: Gunung Kajang
(2.4167°N, 113.7167°E)
Time: 22:30:13
(UTC+00:00)

Centaur Rocket - Pass Details

Date: 29 May 2022
Orbit: 257 x 8641 km, 18.1° (Epoch: 24 June)

Event Time Altitude Azimuth Distance (km) Brightness Sun altitude
Rises 21:16:55 0° 288° (WNW) 8,877 8.5 -14.3°
Reaches altitude 10° 21:25:31 10° 288° (WNW) 6,239 7.7 -12.3°
Maximum altitude 21:40:20 83° 202° (SSW) 1,131 4.3 -8.9°
Drops below altitude 10° 21:44:48 10° 113° (ESE) 2,037 6.4 -7.9°
Sets 21:46:13 0° 112° (ESE) 2,627 7.1 -7.5°
